www.pogodaiklimat.ru

Погода и климат >> Архив погоды >> Россия >> Забайкальский край >> Забайкальск


ПОГОДА в Забайкальске

  • Прогноз погоды в Забайкальске
  • Монитор погоды в Забайкальске

АРХИВ ПОГОДЫ в Забайкальске

Время (UTC), дата Ветер
(напр.,м/с)
 
Видим.   Явления Облачность Т
(С)
Тd
(С)
f
(%)
Тe
(С)
Тes
(С)
Комфортность P
(гПа)
Po
(гПа)
Тmin
(С)
Tmax
(С)
R
(мм)
R24
(мм)
S
(см)
21 16.09 З 10-15
{15}
20 км 6/4
[Sc Ci sp]
+4.3 -0.3 72 -2 -2 1012.8 930.6
00 17.09 СЗ 10-12
{17}
50 км 4/3 1000 м
[Sc Ci sp]
+6.6 -1.7 55 +1 +1 1011.4 932.4 +4.3
03 17.09 СЗ 14-18
{20}
50 км 6/4 600 м
[Cb calv Ci sp]
+12.6 +2.0 48 +9 +9 1014.6 934.6
06 17.09 СЗ 11-16
{16}
50 км 8/6 600 м
[Cb cap Ci sp]
+14.8 +3.7 47 +12 +12 1016.1 936.6
09 17.09 СЗ 10-13
{15}
50 км 8/8 600 м
[Cb cap]
+12.2 +1.4 48 +9 +9 1018.7 938.3
12 17.09 СЗ 4 20 км 4/4 1000 м
[Sc]
+4.5 -0.1 72 0 0 1022.5 939.6 +14.8
15 17.09 СЗ 2 20 км ясно +2.8 -6.1 52 0 0 1024.9 941.3
18 17.09 СЗ 5 20 км ясно +1.4 -5.3 61 -4 -4 1025.4 941.3
21 17.09 СЗ 4 20 км ясно +0.1 -2.8 81 -5 -5 1025.7 941.3
00 18.09 С 3 50 км ясно +3.6 -3.0 62 0 +2 1024.5 941.2 -0.0
03 18.09 СЗ 6 50 км ясно +10.4 -4.4 35 +8 +11 1024.1 942.7
06 18.09 штиль 0
{10}
50 км ?/? +13.0 -4.4 29 +13 +13 1019.5 939.2
09 18.09 З 6
{10}
50 км 4/0
[Ci sp]
+13.6 -3.2 31 +12 +12 1018.8 938.7
12 18.09 СЗ 2 20 км 5/5 600 м
[Cb cap]
+5.2 -0.6 66 +3 +3 1020.1 937.6 +15.0
15 18.09 СЗ 1 20 км 6/4 600 м
[Cb cap Ci sp]
+4.2 +0.4 76 +3 +3 1020.0 937.3
18 18.09 С 2 20 км в посл. час ливневой дождь 9/9 600 м
[Cb cap]
+6.2 +4.5 89 +4 +4 1019.4 937.3
21 18.09 З 3 20 км {ливн. осадки} 1/1 1000 м
[Sc]
+3.8 +3.2 96 -0 -0 1018.7 936.0
00 19.09 СВ 1 50 км {ливн. осадки} ясно +7.2 +5.9 91 +6 +8 1017.9 936.3 +2.0 2
03 19.09 З 4 50 км 1/1 1000 м
[Cu hum]
+14.8 +6.4 57 +14 +19 1016.8 937.3
06 19.09 З 6 50 км 2 балла +17.9 +3.7 39 +17 +20 1014.6 936.0
09 19.09 З 6 50 км 5/3 1000 м
[Cu hum Ci sp]
+17.9 +4.1 40 +17 +18 1013.1 934.7
12 19.09 З 3 20 км 8/8 1000 м
[Sc]
+11.9 +6.6 70 +10 +10 1014.8 934.7 +18.9
15 19.09 СЗ 6 20 км 5/5 1000 м
[Sc]
+11.8 +5.7 66 +9 +9 1016.3 936.0
18 19.09 СЗ 4 20 км 5/5 1000 м
[Sc]
+7.8 +4.6 80 +5 +5 1017.5 936.0
21 19.09 СЗ 4 20 км 3/3 1000 м
[Sc]
+5.9 +3.1 82 +2 +2 1019.5 937.3
00 20.09 СЗ 6 50 км 8/3 1000 м
[Sc Ci sp]
+10.1 +2.9 61 +7 +7 1018.4 937.5 +4.8
03 20.09 СЗ 6
{10}
50 км 3/1 1000 м
[Cb calv Ci fib]
+15.1 +2.9 44 +14 +16 1019.7 940.0
06 20.09 СЗ 7-11
{12}
50 км 3/3 600 м
[Cb calv]
+16.8 +1.2 35 +16 +17 1019.2 940.0
09 20.09 СЗ 8-11
{12}
50 км 4/3 600 м
[Cb calv Ci sp]
+15.4 0.0 35 +14 +14 1019.7 940.0
12 20.09 С 3
{11}
20 км ясно +7.2 +1.3 66 +5 +5 1023.6 941.4 +17.3
15 20.09 З 1 20 км 9/0
[Ci sp]
+5.8 +1.1 72 +5 +5 1026.8 944.0
18 20.09 С 2 20 км 4/0
[Ci sp]
+3.9 +1.8 86 +1 +1 1026.0 942.7
21 20.09 СЗ 2 20 км 3/0
[Ci sp]
+3.8 +0.2 77 +1 +1 1025.6 942.2
00 21.09 З 5 50 км 3/0
[Ci sp]
+11.5 +2.6 54 +9 +10 1023.5 942.5 +1.9
03 21.09 З 5
{10}
50 км 4/0
[Ci sp]
+18.0 +3.5 38 +18 +20 1021.8 942.7
06 21.09 З 5
{12}
50 км 6/0
[Ci sp]
+20.8 +3.5 32 +21 +23 комфорт 1019.5 941.3
09 21.09 З 4 50 км 8/0
[Ci sp]
+20.3 +3.5 33 +21 +21 комфорт 1019.6 941.3
12 21.09 С 2 20 км ясно +10.3 +3.9 64 +9 +9 1022.2 941.0 +21.4
15 21.09 СЗ 3 20 км ясно +5.6 +2.8 82 +2 +2 1025.5 942.7
18 21.09 С 2 20 км ясно +3.6 +1.5 86 +1 +1 1026.1 942.7
21 21.09 С 2 20 км 2 балла +2.2 +0.6 89 -1 -1 1026.5 942.7
00 22.09 С 2 50 км 1/0
[Ci fib]
+9.2 +4.0 70 +8 +9 1023.1 941.5 +1.3
03 22.09 ЮВ 3 50 км ясно +21.5 +5.4 35 +22 +29 комфорт 1019.3 941.3
06 22.09 ЮЗ 3 50 км ясно +26.0 +3.9 24 +25 +31 комфорт 1016.7 940.0
09 22.09 З 4 50 км ясно +25.2 +2.6 23 +24 +25 комфорт 1015.5 938.7
12 22.09 З 1 20 км 1/1 1000 м
[Sc]
+13.6 +5.4 58 +14 +14 1018.3 938.3 +26.4
15 22.09 СВ 1 20 км ясно +14.0 +4.8 54 +15 +15 1018.6 938.7
18 22.09 СЗ 6 20 км ясно +14.3 +4.8 53 +13 +13 1018.5 938.7
21 22.09 С 5 20 км ясно +10.1 +2.7 60 +7 +7 1021.2 940.0
00 23.09 С 7 50 км 3/0
[Ci fib]
+12.1 +1.8 49 +9 +10 1023.0 942.2 +5.4
03 23.09 СЗ 8-11
{12}
50 км 4/0
[Ci fib]
+15.5 -3.0 28 +14 +15 1023.1 943.1
06 23.09 С 7-10
{13}
50 км 6/0
[Ci fib]
+17.5 -6.4 19 +17 +17 1022.1 942.7
09 23.09 СЗ 7 50 км 4 балла +16.0 -4.6 24 +15 +15 1022.5 942.7
12 23.09 З 1 20 км ясно +6.2 -3.0 52 +6 +6 1025.5 942.8 +17.8
15 23.09 С 3 20 км ясно +1.1 -3.2 73 -3 -3 1028.4 944.0
18 23.09 С 3 20 км ясно 0.0 -3.4 78 -5 -5 1027.3 942.7

 

Местоположение метеостанции Забайкальск (Забайкальский край, Россия): широта 49.63 долгота 117.30 высота над уровнем моря 694 м.

В архиве по умолчанию представлена погода в Забайкальске за последнюю неделю. Архивные данные за месяц целиком и за предыдущие месяцы, начиная с января 2011 года, Вы можете получить, выбрав интересующий диапазон дат из раскрывающегося списка и нажав кнопку "Ввод!".


*Определитесь, кто Вы:
робот инопланетянин человек

Внимание! Время в таблицах - всемирное. Для получения местного времени необходимо прибавить поправку, которая равна 9 ч.

Смотрите также архив погоды в соседних городах и на ближайших метеорологических станциях:

Погода в Кайластуе (Забайкальский край, Россия) (75 км)
Погода в Борзе (Забайкальский край, Россия) (103 км)
Погода в Шинэ-Барга-Юци (Внутренняя Монголия, Китай) (113 км)
Погода в Соловьевске (Забайкальский край, Россия) (119 км)
Погода в Приаргунске (Забайкальский край, Россия) (149 км)
Погода в Александровском Заводе (Забайкальский край, Россия) (150 км)
Погода в Бырке (Забайкальский край, Россия) (154 км)
Погода в Хайларе (Внутренняя Монголия, Китай) (183 км)
Погода в Нижнем Цасучее (Забайкальский край, Россия) (184 км)
Погода в Оловянной (Забайкальский край, Россия) (195 км)

Пояснения к столбцам:

Ветер - указаны скорость ветра в м/с - средняя за 10 мин, порывы в срок и между сроками (в фигурных скобках) и направление, откуда дует ветер: С - северный, СВ - северо-восточный, В - восточный, ЮВ - юго-восточный, Ю - южный, ЮЗ - юго-западный, З - западный, СЗ - северо-западный.
Видимость - горизонтальная дальность видимости в метрах или километрах. При видимости от 1 до 10 км при отсутствии осадков обычно наблюдается дымка, при ухудшении видимости до 1 км и менее - туман. В сухую погоду видимость может ухудшаться дымом, пылью или мглою.
Явления - указаны атмосферные явления, наблюдавшиеся в срок или в последний час перед сроком; фигурными скобками обозначены явления, наблюдавшиеся между сроками (за 1-3 часа до срока); квадратными скобками обозначены град или гололедные отложения с указанием их диаметра в мм.
Облачность - указаны через наклонную черту общая и нижняя облачность в баллах и высота нижней границы облаков в метрах; квадратными скобками обозначены формы облаков: Ci - перистые, Cs - перисто-слоистые, Cc - перисто-кучевые, Ac - высококучевые, As - высокослоистые, Sc - слоисто-кучевые, Ns - слоисто-дождевые, Cu - кучевые, Cb - кучево-дождевые. Подробнее классификацию облаков см. в Атласе облаков (PDF).
T - Температура воздуха - температура, измеренная на высоте 2 м над землей.
Td - Температура точки росы - температура, при понижении до которой содержащийся в воздухе водяной пар достигнет насыщения.
f - Относительная влажность воздуха - влажноcть воздуха, измеренная на высоте 2 м над землей.
Te - Эффективная температура - температура, которую ощущает одетый по сезону человек в тени. Характеристика душности погоды. При расчете учитывается влияние влажности воздуха и скорости ветра на теплоощущения человека.
Tes - Эффективная температура на солнце - температура, которую ощущает человек, с поправкой на солнечный нагрев. Характеристика знойности погоды. Зависит от высоты солнца над горизонтом, облачности и скорости ветра. Ночью, в пасмурную погоду, а также при ветре 12 м/с и более поправка равна нулю.
P - Атмосферное давление - приведенное к уровню моря атмосферное давление.
Po - Атмосферное давление - измеренное на уровне метеостанции атмосферное давление.
Tmin - Минимальная температура - минимум температуры воздуха на высоте 2 м над землей.
Tmax - Максимальная температура - максимум температуры воздуха на высоте 2 м над землей.
R - Количество осадков - Количество выпавших осадков за период времени, мм. При наведении курсора мыши на число - период времени, за который выпало указанное количество осадков.
R24 - Количество осадков - Количество выпавших осадков за 24 часа, мм.
S - Снежный покров - Высота снежного покрова, см. При наведении курсора мыши на число - состояние снежного покрова и степень покрытия местности в баллах.